Home   Weather   Lódz   Past weeks

Flag for Poland Past Weather in Lódz, Poland — Yesterday and Last 2 Weeks

Now
38 °F

Fog.


Feels Like: 35 °F
Forecast: 38 / 43 °F
Wind: 5 mph from Southwest

Location: Lodz

Current Time: Feb 20, 2017 at 12:54:16 pm

Latest Report: Feb 20, 2017 at 12:00 pm


Visibility: 4 mi

Pressure: 30.00 "Hg

Humidity: 89%

Dew Point: 35 °F

Location of LódzLocation

Past Weather in Lódz — Graph

°F

Lódz Temperature Yesterday

Maximum temperature yesterday: 38 °F (at 3:00 pm)
Minimum temperature yesterday: 33 °F (at 11:00 pm)
Average temperature yesterday: 35 °F

High & Low Weather Summary for the Past Weeks

 TemperatureHumidityPressure
High44 °F (Feb 16, 2:00 pm)100% (Feb 18, 4:00 am)30.75 "Hg (Feb 18, 4:00 am)
Low11 °F (Feb 15, 7:00 am)43% (Feb 10, 8:00 pm)29.75 "Hg (Feb 5, 12:00 pm)
Average25 °F82%30.39 "Hg
* Reported Feb 5 11:00 am — Feb 20 11:00 am, Lódz, Weather by CustomWeather, © 2017

Note: Actual official high and low records may vary slightly from our data, if they occured in-between our weather recording intervals... More about our weather records

Advertising

Lódz Weather History for the Previous 24 Hours

Scroll right to see more
 ConditionsComfort  
Time TempWeatherWind HumidityBarometerVisibility
11:00 am
Mon, Feb 20
37 °FFog.6 mph92%30.02 "Hg3 mi
10:00 am36 °FFog.6 mph91%30.03 "Hg3 mi
9:00 am36 °FFog.5 mph87%30.04 "Hg5 mi
8:00 am36 °FOvercast.3 mph85%30.04 "Hg6 mi
7:00 am35 °FOvercast.3 mph84%30.06 "Hg6 mi
6:00 am35 °FOvercast.3 mph83%30.05 "Hg7 mi
5:00 am35 °FOvercast.5 mph83%30.07 "Hg7 mi
4:00 am34 °FPassing clouds.5 mph83%30.06 "Hg7 mi
3:00 am34 °FOvercast.5 mph83%30.06 "Hg7 mi
2:00 am33 °FFog.3 mph84%30.09 "Hg6 mi
1:00 am33 °FFog.5 mph84%30.10 "Hg6 mi
12:00 am32 °FFog.N/A86%30.10 "Hg4 mi
11:00 pm
Sun, Feb 19
33 °FFog.2 mph86%30.10 "Hg5 mi
10:00 pm33 °FFog.2 mph86%30.09 "Hg4 mi
9:00 pm34 °FFog.1 mph84%30.10 "Hg4 mi
8:00 pm35 °FFog.2 mph84%30.10 "Hg4 mi
7:00 pm35 °FFog.1 mph80%30.11 "Hg5 mi
6:00 pm36 °FPassing clouds.2 mph76%30.11 "Hg8 mi
5:00 pm38 °FPartly sunny.2 mph72%30.11 "Hg11 mi
4:00 pm38 °FOvercast.2 mph74%30.13 "Hg9 mi
3:00 pm38 °FOvercast.3 mph77%30.14 "Hg10 mi
2:00 pm38 °FOvercast.3 mph79%30.16 "Hg8 mi
1:00 pm37 °FOvercast.5 mph83%30.19 "Hg7 mi
12:00 pm36 °FOvercast.3 mph86%30.21 "Hg6 mi
Weather by CustomWeather, © 2017

See weather overviewHow to use our weather pages